Precipitable_Water
1.12 1.14 1.09 1.08 1.11 1.19 1.23 1.29 1.30 1.30 1.41 1.50 1.46 1.46 1.43 1.31 1.21 1.15 1.10 1.10 1.09 1.08 1.06 1.05 1.08 1.09 1.07 1.06 1.06 1.07 1.09 1.03 1.01 0.96 0.89 0.99 1.11 1.20 1.24 1.30 1.30 1.29 1.19 1.10 1.03 0.91 0.86 0.88 0.90 1.01 1.07 1.06 1.02 0.99 1.03 0.94 0.85 0.77 0.65 0.61 0.51 0.40 0.32 0.35 0.35 0.36 0.35 0.28 0.30 0.32 0.33 0.30 0.26 0.29 0.31 0.36 0.33 0.35 0.39 0.36 0.45 0.52 0.49 0.56 0.55 0.56 0.67 0.76
1.06 1.13 1.07 1.05 1.05 1.09 1.17 1.23 1.30 1.33 1.37 1.56 1.58 1.41 1.39 1.39 1.26 1.18 1.13 1.08 1.08 1.05 1.04 1.06 1.08 1.09 1.09 1.08 1.08 1.09 1.03 0.96 0.88 0.90 0.88 1.12 1.17 1.21 1.22 1.30 1.36 1.32 1.24 1.08 0.97 0.93 0.84 0.84 0.88 0.93 0.99 0.97 1.05 0.94 1.05 0.93 0.90 0.71 0.65 0.62 0.52 0.43 0.35 0.40 0.41 0.41 0.34 0.29 0.30 0.32 0.33 0.31 0.27 0.28 0.31 0.26 0.28 0.31 0.30 0.33 0.40 0.39 0.46 0.55 0.58 0.61 0.65 0.72
1.10 1.14 1.14 1.06 1.08 1.11 1.12 1.16 1.20 1.32 1.38 1.44 1.60 1.58 1.52 1.44 1.34 1.22 1.15 1.11 1.06 1.03 1.03 1.05 1.08 1.09 1.10 1.10 1.09 1.09 0.99 0.87 0.82 0.74 0.90 1.16 1.19 1.21 1.24 1.29 1.29 1.31 1.23 1.07 1.05 0.95 0.89 0.88 0.90 0.93 0.96 0.96 0.99 0.91 0.97 0.92 0.90 0.77 0.66 0.59 0.55 0.48 0.42 0.44 0.43 0.40 0.38 0.35 0.30 0.30 0.31 0.30 0.29 0.29 0.33 0.25 0.26 0.29 0.24 0.25 0.32 0.31 0.32 0.44 0.54 0.60 0.63 0.68
0.96 1.08 1.14 1.12 1.10 1.14 1.10 1.14 1.18 1.20 1.33 1.37 1.56 1.53 1.51 1.48 1.41 1.30 1.21 1.15 1.12 1.04 1.02 1.04 1.08 1.10 1.11 1.11 1.12 1.09 0.95 0.81 0.63 0.73 0.97 1.11 1.14 1.17 1.19 1.23 1.28 1.28 1.26 1.19 1.12 0.97 0.95 0.96 0.95 0.96 0.93 0.96 0.98 0.96 0.89 0.92 0.88 0.79 0.69 0.61 0.56 0.50 0.44 0.44 0.44 0.42 0.39 0.36 0.32 0.31 0.32 0.29 0.29 0.30 0.28 0.26 0.25 0.24 0.25 0.30 0.24 0.24 0.32 0.42 0.52 0.56 0.61 0.64
0.92 1.02 1.14 1.16 1.14 1.14 1.17 1.18 1.21 1.17 1.25 1.42 1.56 1.55 1.53 1.47 1.46 1.34 1.26 1.21 1.15 1.07 1.02 1.03 1.05 1.09 1.11 1.12 1.11 1.08 0.86 0.57 0.57 0.83 1.02 1.09 1.10 1.12 1.16 1.19 1.23 1.24 1.23 1.17 1.10 1.05 0.99 0.92 0.97 0.99 0.98 0.91 0.95 0.93 0.89 0.91 0.94 0.80 0.71 0.70 0.60 0.51 0.45 0.47 0.44 0.42 0.39 0.36 0.33 0.31 0.28 0.27 0.32 0.29 0.27 0.26 0.20 0.19 0.22 0.26 0.32 0.32 0.35 0.41 0.48 0.53 0.58 0.60
0.88 0.94 1.06 1.16 1.16 1.17 1.16 1.19 1.20 1.19 1.28 1.40 1.52 1.62 1.51 1.49 1.45 1.38 1.31 1.24 1.18 1.10 1.04 1.04 1.04 1.08 1.11 1.12 1.10 0.98 0.77 0.35 0.81 0.83 1.08 1.08 1.08 1.10 1.11 1.14 1.19 1.22 1.19 1.10 1.02 1.00 0.93 0.91 0.92 0.90 0.94 0.93 0.89 0.86 0.88 0.89 0.91 0.75 0.76 0.72 0.60 0.52 0.46 0.49 0.46 0.43 0.41 0.35 0.32 0.29 0.30 0.31 0.29 0.25 0.26 0.26 0.22 0.23 0.28 0.30 0.33 0.37 0.37 0.42 0.48 0.51 0.52 0.56
0.82 0.92 1.02 1.07 1.04 1.11 1.21 1.21 1.17 1.16 1.37 1.40 1.56 1.61 1.57 1.49 1.43 1.39 1.32 1.26 1.19 1.13 1.06 1.05 1.05 1.09 1.11 1.12 1.06 0.89 0.70 0.68 0.86 1.03 1.11 1.09 1.09 1.10 1.11 1.12 1.14 1.14 1.13 1.05 1.01 0.96 0.96 0.87 0.87 0.85 0.89 0.91 0.90 0.88 0.88 0.87 0.87 0.80 0.71 0.71 0.60 0.55 0.49 0.49 0.46 0.45 0.41 0.36 0.31 0.33 0.35 0.29 0.28 0.22 0.26 0.25 0.26 0.27 0.28 0.33 0.38 0.42 0.47 0.52 0.47 0.48 0.46 0.50
0.77 0.87 0.99 1.09 1.06 1.04 1.09 1.19 1.19 1.16 1.28 1.41 1.51 1.61 1.49 1.49 1.45 1.39 1.35 1.28 1.21 1.14 1.09 1.06 1.07 1.08 1.11 1.01 0.85 0.73 0.70 0.68 0.90 1.16 1.17 1.11 1.10 1.10 1.11 1.10 1.08 1.09 1.07 1.01 0.98 0.94 0.97 0.88 0.80 0.86 0.86 0.86 0.87 0.87 0.88 0.85 0.83 0.75 0.72 0.69 0.60 0.54 0.52 0.50 0.48 0.45 0.41 0.37 0.35 0.34 0.31 0.28 0.28 0.26 0.26 0.23 0.27 0.28 0.28 0.36 0.41 0.44 0.47 0.50 0.46 0.46 0.48 0.51
0.72 0.82 0.93 1.02 1.06 1.06 1.06 1.13 1.19 1.16 1.23 1.41 1.50 1.57 1.57 1.51 1.46 1.42 1.38 1.32 1.24 1.17 1.10 1.08 1.07 1.08 1.08 0.95 0.77 0.64 0.61 0.87 1.00 1.13 1.17 1.09 1.06 1.08 1.08 0.98 1.07 1.01 1.02 1.06 1.06 1.01 0.96 0.90 0.87 0.90 0.77 0.83 0.91 0.86 0.88 0.83 0.75 0.76 0.70 0.69 0.60 0.52 0.50 0.49 0.47 0.46 0.41 0.38 0.35 0.32 0.29 0.30 0.29 0.29 0.24 0.24 0.26 0.28 0.32 0.36 0.39 0.42 0.43 0.45 0.46 0.46 0.47 0.50
0.70 0.76 0.86 0.96 1.01 1.04 1.06 1.13 1.17 1.20 1.21 1.27 1.51 1.47 1.58 1.53 1.46 1.43 1.39 1.33 1.26 1.19 1.14 1.08 1.08 1.08 0.97 0.83 0.76 0.54 0.73 1.01 1.08 1.14 1.13 1.09 1.06 1.05 1.04 1.03 1.05 1.01 0.96 1.01 1.06 1.03 0.94 0.93 0.92 0.95 0.91 0.89 0.91 0.86 0.89 0.84 0.75 0.79 0.71 0.67 0.60 0.53 0.50 0.48 0.46 0.46 0.42 0.37 0.35 0.30 0.29 0.28 0.29 0.26 0.20 0.24 0.27 0.30 0.32 0.33 0.39 0.39 0.38 0.42 0.44 0.47 0.49 0.48
0.67 0.73 0.80 0.86 0.95 1.01 1.04 1.09 1.16 1.23 1.24 1.22 1.37 1.55 1.50 1.52 1.48 1.43 1.39 1.34 1.28 1.22 1.16 1.10 1.08 1.05 0.87 0.82 0.62 0.51 1.01 1.02 1.12 1.13 1.11 1.10 1.04 1.00 0.99 1.03 1.05 1.00 0.98 0.99 1.00 1.07 1.05 1.02 1.00 0.99 0.95 0.87 0.90 0.86 0.88 0.85 0.88 0.79 0.73 0.67 0.60 0.55 0.52 0.49 0.47 0.46 0.43 0.36 0.34 0.31 0.28 0.29 0.28 0.25 0.20 0.22 0.27 0.30 0.27 0.32 0.36 0.37 0.37 0.40 0.43 0.45 0.49 0.49
0.65 0.69 0.74 0.84 0.91 0.97 1.00 1.03 1.12 1.18 1.23 1.21 1.28 1.53 1.50 1.46 1.47 1.43 1.40 1.36 1.31 1.25 1.18 1.11 1.08 1.01 0.92 0.78 0.66 0.65 1.02 1.03 1.13 1.12 1.10 1.07 1.01 1.05 1.09 1.11 1.10 1.04 1.00 0.93 0.99 1.07 1.07 1.04 1.04 0.97 0.79 0.99 0.81 0.90 0.86 0.91 0.86 0.80 0.71 0.62 0.59 0.55 0.49 0.47 0.44 0.46 0.44 0.36 0.34 0.32 0.28 0.25 0.25 0.21 0.22 0.24 0.29 0.30 0.29 0.30 0.34 0.35 0.37 0.40 0.42 0.45 0.48 0.46
0.65 0.67 0.71 0.78 0.87 0.94 0.99 1.00 1.08 1.17 1.22 1.24 1.24 1.51 1.54 1.45 1.45 1.42 1.42 1.38 1.33 1.26 1.20 1.14 1.09 1.01 0.84 0.65 0.75 0.96 1.07 1.13 1.12 1.11 1.08 1.07 1.06 1.11 1.12 1.15 1.15 1.13 1.11 1.02 1.01 1.08 1.10 1.08 1.06 0.93 0.96 0.91 0.88 0.79 0.86 0.91 0.84 0.82 0.69 0.61 0.56 0.51 0.46 0.45 0.45 0.46 0.43 0.37 0.35 0.31 0.19 0.21 0.22 0.23 0.24 0.24 0.28 0.30 0.29 0.29 0.33 0.34 0.37 0.40 0.41 0.42 0.43 0.49
0.62 0.66 0.69 0.74 0.83 0.92 0.99 1.02 1.04 1.13 1.20 1.25 1.25 1.52 1.54 1.49 1.45 1.45 1.44 1.39 1.37 1.30 1.25 1.20 1.12 0.98 0.81 0.66 0.85 1.01 1.14 1.18 1.14 1.04 1.00 1.06 0.99 1.00 1.08 1.14 1.18 1.18 1.19 1.12 1.13 1.17 1.13 1.18 1.12 1.02 1.04 0.92 0.85 1.04 0.90 0.84 0.82 0.71 0.69 0.62 0.53 0.47 0.41 0.43 0.43 0.45 0.41 0.40 0.34 0.31 0.19 0.19 0.22 0.24 0.25 0.24 0.30 0.26 0.24 0.28 0.31 0.33 0.35 0.37 0.40 0.40 0.41 0.44
0.58 0.63 0.67 0.71 0.78 0.87 0.96 1.01 1.03 1.12 1.19 1.22 1.27 1.53 1.51 1.48 1.48 1.46 1.45 1.42 1.40 1.35 1.30 1.27 1.16 0.94 0.72 0.74 0.98 1.08 1.19 1.21 0.99 0.97 1.04 0.96 0.92 0.91 0.97 1.07 1.08 1.12 1.15 1.15 1.13 1.18 1.20 1.18 1.10 0.96 0.87 0.99 0.99 0.89 0.81 0.77 0.76 0.72 0.62 0.56 0.55 0.47 0.43 0.42 0.44 0.45 0.40 0.39 0.36 0.29 0.19 0.18 0.21 0.23 0.25 0.25 0.29 0.28 0.23 0.26 0.29 0.31 0.32 0.34 0.37 0.38 0.39 0.40
0.56 0.61 0.65 0.68 0.75 0.83 0.92 1.00 1.04 1.07 1.16 1.21 1.23 1.49 1.49 1.46 1.47 1.48 1.45 1.42 1.42 1.37 1.36 1.14 1.09 0.94 0.72 0.61 0.83 1.20 1.08 0.89 0.88 1.05 1.09 1.03 0.96 0.87 0.99 1.01 1.06 1.07 1.10 1.10 1.17 1.16 1.17 1.16 0.98 0.95 0.91 0.94 0.87 0.80 0.75 0.73 0.71 0.70 0.60 0.54 0.52 0.49 0.44 0.38 0.41 0.44 0.45 0.40 0.35 0.29 0.19 0.19 0.21 0.23 0.24 0.25 0.27 0.28 0.24 0.25 0.27 0.29 0.30 0.33 0.35 0.36 0.37 0.39
0.53 0.58 0.63 0.66 0.73 0.81 0.89 1.01 1.05 1.07 1.12 1.18 1.18 1.43 1.48 1.44 1.45 1.49 1.45 1.44 1.43 1.44 1.24 1.04 1.06 1.02 0.64 0.88 1.07 0.85 0.80 0.94 1.09 1.03 1.04 1.06 1.00 0.97 0.95 0.95 0.93 0.97 1.05 1.07 1.09 1.11 1.09 0.99 0.97 0.93 0.94 0.83 0.85 0.80 0.66 0.62 0.61 0.64 0.63 0.54 0.54 0.47 0.44 0.36 0.40 0.44 0.44 0.41 0.32 0.31 0.22 0.20 0.22 0.24 0.24 0.24 0.26 0.27 0.24 0.23 0.25 0.27 0.29 0.31 0.33 0.35 0.35 0.36
0.55 0.55 0.61 0.65 0.69 0.79 0.90 0.98 1.03 1.07 1.10 1.11 1.19 1.36 1.37 1.40 1.42 1.44 1.41 1.41 1.41 1.33 1.26 1.25 1.12 0.88 0.75 0.90 0.61 0.67 0.90 0.89 0.95 0.99 1.02 1.03 1.03 0.97 0.93 0.86 0.91 0.93 0.95 0.90 1.00 0.92 0.99 0.87 0.92 0.74 0.78 0.78 0.78 0.71 0.60 0.48 0.54 0.57 0.59 0.54 0.52 0.49 0.45 0.38 0.35 0.40 0.42 0.41 0.34 0.29 0.24 0.22 0.23 0.24 0.24 0.24 0.26 0.26 0.24 0.23 0.24 0.25 0.26 0.28 0.30 0.31 0.32 0.33
0.56 0.55 0.60 0.63 0.67 0.75 0.88 0.97 1.02 1.04 1.07 1.07 1.19 1.40 1.38 1.38 1.37 1.35 1.24 1.20 1.07 0.91 0.80 0.83 0.85 0.62 0.48 0.60 0.77 0.81 0.88 0.96 1.03 0.99 0.89 0.93 0.96 0.97 0.93 0.94 0.90 0.84 0.76 0.76 0.78 0.83 0.88 0.82 0.84 0.71 0.62 0.65 0.66 0.67 0.61 0.62 0.67 0.65 0.63 0.57 0.54 0.47 0.43 0.39 0.38 0.42 0.42 0.37 0.34 0.29 0.23 0.22 0.24 0.23 0.25 0.25 0.26 0.25 0.25 0.26 0.26 0.26 0.26 0.26 0.26 0.27 0.28 0.29
0.56 0.56 0.58 0.63 0.65 0.71 0.83 0.95 1.01 1.03 1.06 1.05 1.10 1.20 1.22 0.99 0.95 0.90 1.11 1.09 0.90 0.81 0.79 0.83 0.84 0.78 0.77 0.78 0.76 0.89 1.04 1.05 0.84 0.91 0.96 0.99 0.91 0.85 0.81 0.82 0.77 0.79 0.73 0.64 0.72 0.79 0.86 0.66 0.59 0.54 0.57 0.63 0.72 0.76 0.75 0.70 0.68 0.67 0.63 0.57 0.53 0.49 0.45 0.43 0.39 0.40 0.43 0.37 0.33 0.31 0.26 0.24 0.24 0.24 0.24 0.26 0.26 0.26 0.26 0.25 0.24 0.24 0.24 0.24 0.24 0.24 0.25 0.26
0.55 0.56 0.58 0.62 0.65 0.69 0.78 0.92 0.98 1.02 1.06 1.04 1.04 1.00 0.86 0.78 0.70 0.66 0.87 0.95 0.94 0.95 0.88 0.92 0.90 0.78 0.74 0.82 0.88 0.87 0.76 0.81 0.90 0.85 0.90 0.99 0.89 0.80 0.70 0.72 0.67 0.59 0.64 0.68 0.67 0.80 0.81 0.62 0.58 0.62 0.70 0.77 0.78 0.80 0.79 0.74 0.69 0.64 0.59 0.55 0.52 0.51 0.45 0.43 0.38 0.40 0.41 0.35 0.32 0.32 0.28 0.25 0.26 0.26 0.26 0.26 0.26 0.25 0.25 0.24 0.22 0.21 0.21 0.23 0.23 0.23 0.23 0.24
0.54 0.55 0.57 0.61 0.64 0.68 0.74 0.88 0.93 1.00 1.11 1.09 1.04 0.96 0.94 0.88 0.94 0.96 0.94 0.76 0.89 0.95 0.93 0.92 0.94 0.86 0.93 0.89 0.97 0.96 0.85 0.69 0.74 0.86 0.95 0.88 0.76 0.64 0.64 0.64 0.59 0.53 0.64 0.65 0.66 0.61 0.57 0.51 0.57 0.71 0.76 0.82 0.81 0.79 0.77 0.73 0.69 0.64 0.57 0.52 0.50 0.50 0.50 0.47 0.41 0.40 0.39 0.36 0.31 0.32 0.27 0.25 0.26 0.27 0.27 0.26 0.26 0.26 0.26 0.25 0.23 0.22 0.20 0.20 0.20 0.21 0.22 0.23
0.54 0.55 0.55 0.60 0.64 0.66 0.72 0.84 0.91 1.00 1.06 1.03 0.96 1.04 0.92 1.05 1.10 1.13 1.04 0.89 0.78 0.93 0.87 0.88 0.80 0.80 0.79 0.92 0.98 0.97 0.73 0.65 0.57 0.73 0.81 0.79 0.70 0.66 0.62 0.56 0.54 0.57 0.60 0.62 0.51 0.49 0.43 0.50 0.63 0.72 0.75 0.75 0.75 0.76 0.73 0.70 0.69 0.63 0.57 0.50 0.47 0.50 0.46 0.40 0.41 0.39 0.38 0.35 0.31 0.31 0.27 0.25 0.27 0.28 0.28 0.28 0.28 0.27 0.28 0.27 0.26 0.26 0.23 0.20 0.19 0.19 0.19 0.20
0.53 0.56 0.55 0.58 0.63 0.64 0.72 0.82 0.91 0.96 0.98 0.98 1.02 1.06 1.08 1.12 1.10 1.09 0.94 0.74 0.67 0.80 0.86 0.89 0.90 0.82 0.78 0.74 0.93 0.85 0.70 0.70 0.71 0.64 0.83 0.75 0.63 0.67 0.60 0.58 0.54 0.54 0.50 0.54 0.54 0.49 0.48 0.56 0.68 0.69 0.72 0.71 0.68 0.69 0.67 0.64 0.59 0.62 0.58 0.52 0.48 0.48 0.48 0.44 0.39 0.39 0.38 0.37 0.35 0.32 0.27 0.24 0.25 0.25 0.26 0.28 0.30 0.29 0.27 0.27 0.26 0.26 0.24 0.22 0.22 0.21 0.21 0.21
0.53 0.55 0.54 0.57 0.61 0.64 0.72 0.86 0.84 0.85 0.95 0.95 0.98 1.17 1.11 1.10 1.12 1.05 0.86 0.73 0.72 0.70 0.94 0.88 0.95 0.87 0.86 1.04 0.98 0.79 0.77 0.78 0.75 0.77 0.77 0.73 0.64 0.63 0.56 0.64 0.57 0.49 0.53 0.58 0.57 0.54 0.53 0.63 0.70 0.66 0.66 0.68 0.68 0.64 0.65 0.62 0.55 0.58 0.61 0.55 0.51 0.49 0.47 0.45 0.42 0.38 0.33 0.30 0.32 0.30 0.23 0.20 0.23 0.25 0.25 0.28 0.29 0.28 0.28 0.26 0.24 0.24 0.23 0.23 0.21 0.20 0.21 0.22
0.54 0.54 0.56 0.55 0.60 0.63 0.76 0.74 0.75 0.85 0.88 0.86 0.96 1.11 1.11 1.09 1.12 1.07 0.82 0.58 0.46 0.63 0.81 0.63 0.94 0.75 1.04 0.80 0.88 0.80 0.78 0.63 0.79 0.80 0.80 0.76 0.76 0.63 0.59 0.53 0.55 0.43 0.52 0.55 0.54 0.55 0.55 0.63 0.65 0.63 0.65 0.67 0.66 0.64 0.66 0.66 0.56 0.54 0.56 0.61 0.54 0.50 0.47 0.45 0.41 0.37 0.30 0.26 0.29 0.32 0.22 0.18 0.24 0.24 0.25 0.28 0.28 0.27 0.28 0.27 0.26 0.25 0.24 0.23 0.22 0.21 0.21 0.20
0.56 0.54 0.55 0.56 0.59 0.68 0.64 0.57 0.79 0.88 0.76 0.85 1.12 1.17 1.11 1.05 1.13 1.02 0.69 0.49 0.41 0.63 0.59 0.77 0.76 0.81 0.95 0.82 0.79 0.80 0.48 0.56 0.77 0.80 0.76 0.79 0.65 0.73 0.53 0.49 0.51 0.53 0.57 0.58 0.52 0.44 0.56 0.57 0.61 0.64 0.63 0.64 0.64 0.60 0.66 0.65 0.58 0.51 0.61 0.60 0.53 0.48 0.45 0.44 0.41 0.37 0.32 0.34 0.32 0.30 0.27 0.21 0.19 0.23 0.27 0.28 0.28 0.27 0.27 0.27 0.26 0.26 0.25 0.23 0.22 0.21 0.21 0.20
0.56 0.55 0.54 0.56 0.60 0.67 0.56 0.63 0.79 0.77 0.78 0.95 1.17 1.16 1.11 1.08 1.09 1.01 0.63 0.32 0.31 0.72 0.58 0.71 0.78 1.02 0.89 0.88 0.85 0.69 0.62 0.67 0.55 0.68 0.77 0.77 0.73 0.63 0.54 0.46 0.43 0.44 0.49 0.47 0.30 0.44 0.52 0.51 0.55 0.56 0.58 0.58 0.56 0.63 0.69 0.69 0.60 0.53 0.63 0.62 0.52 0.47 0.44 0.42 0.41 0.37 0.34 0.31 0.26 0.27 0.29 0.23 0.20 0.22 0.27 0.27 0.25 0.26 0.26 0.26 0.26 0.26 0.25 0.23 0.22 0.22 0.22 0.21
0.57 0.55 0.55 0.56 0.60 0.62 0.63 0.72 0.78 0.74 0.89 1.13 1.16 1.19 1.10 1.07 0.99 0.72 0.47 0.30 0.56 0.59 0.91 0.61 1.01 0.87 0.82 0.87 0.75 0.74 0.68 0.71 0.53 0.63 0.74 0.75 0.74 0.62 0.47 0.50 0.49 0.48 0.49 0.43 0.33 0.40 0.47 0.50 0.55 0.60 0.59 0.51 0.60 0.68 0.71 0.68 0.58 0.61 0.64 0.61 0.53 0.49 0.44 0.42 0.39 0.37 0.34 0.29 0.23 0.25 0.28 0.21 0.20 0.23 0.24 0.26 0.24 0.23 0.25 0.26 0.27 0.26 0.24 0.23 0.22 0.22 0.22 0.22
0.58 0.56 0.55 0.56 0.60 0.59 0.66 0.77 0.79 0.95 1.05 1.16 1.16 1.15 1.10 0.98 0.77 0.49 0.37 0.26 0.61 0.44 0.67 0.70 0.69 0.63 0.76 0.65 0.66 0.71 0.64 0.66 0.66 0.66 0.69 0.63 0.65 0.65 0.60 0.64 0.52 0.48 0.44 0.46 0.41 0.42 0.46 0.55 0.58 0.56 0.52 0.60 0.65 0.69 0.72 0.69 0.66 0.65 0.60 0.50 0.48 0.46 0.44 0.43 0.41 0.38 0.33 0.26 0.23 0.25 0.27 0.25 0.19 0.22 0.22 0.23 0.23 0.25 0.25 0.25 0.25 0.25 0.24 0.24 0.23 0.22 0.22 0.21
0.59 0.58 0.54 0.58 0.53 0.55 0.65 0.61 0.74 1.07 1.07 1.16 1.16 1.08 0.96 0.80 0.53 0.38 0.28 0.39 0.58 0.54 0.67 0.65 0.56 0.73 0.62 0.57 0.52 0.66 0.65 0.65 0.62 0.64 0.57 0.63 0.58 0.59 0.58 0.52 0.58 0.46 0.44 0.43 0.40 0.43 0.45 0.49 0.48 0.51 0.60 0.63 0.68 0.65 0.72 0.72 0.67 0.59 0.52 0.47 0.45 0.43 0.44 0.41 0.39 0.38 0.29 0.24 0.25 0.26 0.26 0.26 0.19 0.20 0.24 0.25 0.27 0.28 0.27 0.26 0.24 0.22 0.21 0.21 0.21 0.21 0.22 0.22
0.59 0.58 0.56 0.56 0.56 0.59 0.54 0.51 0.76 1.06 1.11 1.14 1.06 0.89 0.75 0.45 0.52 0.34 0.32 0.66 0.38 0.49 0.50 0.52 0.60 0.57 0.57 0.59 0.53 0.55 0.54 0.60 0.62 0.60 0.54 0.52 0.49 0.47 0.46 0.38 0.42 0.32 0.32 0.34 0.34 0.44 0.38 0.42 0.50 0.52 0.59 0.59 0.58 0.59 0.63 0.66 0.62 0.56 0.51 0.47 0.39 0.36 0.36 0.32 0.34 0.29 0.27 0.24 0.27 0.27 0.26 0.23 0.21 0.23 0.24 0.25 0.26 0.28 0.29 0.28 0.25 0.23 0.21 0.20 0.20 0.20 0.20 0.22
0.60 0.58 0.56 0.54 0.57 0.57 0.59 0.66 0.86 1.05 1.11 1.09 0.93 0.80 0.55 0.41 0.28 0.42 0.42 0.48 0.38 0.53 0.49 0.59 0.52 0.54 0.55 0.53 0.51 0.56 0.63 0.50 0.61 0.59 0.59 0.55 0.50 0.48 0.51 0.49 0.49 0.41 0.29 0.39 0.38 0.37 0.36 0.44 0.47 0.48 0.52 0.57 0.58 0.50 0.51 0.51 0.54 0.50 0.45 0.42 0.37 0.33 0.31 0.28 0.29 0.30 0.28 0.29 0.31 0.27 0.28 0.21 0.23 0.26 0.28 0.25 0.26 0.27 0.28 0.28 0.27 0.24 0.22 0.21 0.20 0.20 0.21 0.21
0.61 0.58 0.54 0.53 0.59 0.56 0.62 0.79 0.92 1.07 1.02 0.99 0.81 0.64 0.49 0.35 0.33 0.50 0.44 0.47 0.44 0.55 0.55 0.53 0.55 0.57 0.54 0.45 0.48 0.54 0.49 0.59 0.57 0.55 0.57 0.50 0.50 0.44 0.45 0.49 0.49 0.43 0.41 0.41 0.36 0.37 0.29 0.29 0.37 0.44 0.39 0.53 0.53 0.55 0.54 0.49 0.49 0.49 0.51 0.46 0.40 0.37 0.32 0.27 0.28 0.26 0.25 0.26 0.28 0.31 0.24 0.20 0.19 0.21 0.27 0.28 0.28 0.28 0.27 0.27 0.27 0.26 0.24 0.23 0.23 0.23 0.23 0.22
0.60 0.58 0.54 0.54 0.58 0.60 0.70 0.80 0.94 1.04 0.96 0.85 0.69 0.53 0.35 0.33 0.41 0.40 0.44 0.46 0.50 0.53 0.50 0.58 0.50 0.48 0.46 0.50 0.53 0.55 0.53 0.48 0.58 0.55 0.52 0.49 0.45 0.45 0.41 0.40 0.46 0.46 0.44 0.36 0.41 0.39 0.35 0.36 0.45 0.53 0.51 0.56 0.51 0.58 0.63 0.55 0.49 0.50 0.50 0.49 0.42 0.38 0.41 0.32 0.32 0.31 0.30 0.28 0.27 0.27 0.24 0.24 0.23 0.26 0.28 0.27 0.28 0.28 0.29 0.28 0.28 0.25 0.24 0.24 0.23 0.22 0.22 0.23
0.60 0.55 0.56 0.51 0.53 0.62 0.75 0.83 0.95 1.00 0.90 0.73 0.56 0.42 0.37 0.41 0.37 0.48 0.43 0.51 0.49 0.44 0.49 0.53 0.50 0.44 0.42 0.43 0.49 0.47 0.57 0.49 0.55 0.53 0.50 0.49 0.48 0.44 0.47 0.47 0.46 0.46 0.37 0.30 0.35 0.32 0.37 0.33 0.46 0.50 0.54 0.54 0.56 0.61 0.61 0.59 0.37 0.44 0.46 0.39 0.40 0.47 0.42 0.35 0.33 0.34 0.32 0.29 0.25 0.29 0.26 0.25 0.27 0.26 0.26 0.25 0.25 0.26 0.27 0.27 0.27 0.25 0.24 0.23 0.22 0.23 0.23 0.24
0.55 0.55 0.48 0.51 0.53 0.64 0.73 0.88 0.99 0.94 0.84 0.66 0.51 0.40 0.47 0.48 0.51 0.47 0.50 0.45 0.45 0.47 0.44 0.35 0.41 0.38 0.36 0.37 0.41 0.43 0.44 0.50 0.52 0.52 0.43 0.51 0.44 0.47 0.43 0.43 0.49 0.48 0.46 0.41 0.37 0.44 0.33 0.34 0.46 0.45 0.44 0.52 0.59 0.60 0.61 0.61 0.56 0.49 0.40 0.43 0.49 0.50 0.45 0.35 0.28 0.29 0.28 0.25 0.25 0.27 0.23 0.23 0.22 0.19 0.25 0.24 0.22 0.23 0.24 0.24 0.25 0.25 0.25 0.22 0.22 0.23 0.24 0.25
0.52 0.49 0.47 0.49 0.54 0.68 0.79 0.94 0.99 0.90 0.77 0.61 0.46 0.45 0.54 0.45 0.53 0.50 0.52 0.51 0.52 0.50 0.41 0.35 0.38 0.41 0.33 0.32 0.34 0.37 0.41 0.36 0.42 0.49 0.43 0.47 0.36 0.48 0.42 0.41 0.46 0.45 0.48 0.50 0.41 0.41 0.44 0.33 0.40 0.46 0.48 0.52 0.57 0.57 0.53 0.57 0.59 0.49 0.45 0.54 0.42 0.35 0.34 0.37 0.32 0.25 0.24 0.23 0.23 0.25 0.25 0.24 0.23 0.20 0.22 0.22 0.22 0.22 0.22 0.23 0.23 0.23 0.23 0.22 0.23 0.25 0.27 0.28
0.50 0.45 0.37 0.47 0.60 0.69 0.82 0.94 0.93 0.79 0.65 0.51 0.47 0.44 0.52 0.48 0.54 0.50 0.54 0.54 0.51 0.46 0.39 0.41 0.35 0.41 0.38 0.32 0.31 0.36 0.35 0.31 0.37 0.41 0.39 0.42 0.33 0.42 0.40 0.42 0.40 0.45 0.48 0.48 0.42 0.43 0.45 0.33 0.36 0.48 0.47 0.49 0.50 0.49 0.38 0.44 0.53 0.55 0.54 0.48 0.49 0.43 0.38 0.34 0.32 0.31 0.28 0.24 0.23 0.23 0.25 0.22 0.25 0.23 0.23 0.23 0.23 0.22 0.22 0.22 0.22 0.22 0.22 0.23 0.23 0.25 0.26 0.27
0.41 0.37 0.33 0.54 0.64 0.71 0.89 0.92 0.79 0.70 0.58 0.45 0.47 0.47 0.52 0.45 0.52 0.55 0.57 0.53 0.49 0.45 0.39 0.38 0.40 0.34 0.39 0.34 0.36 0.31 0.36 0.32 0.33 0.36 0.39 0.39 0.35 0.42 0.39 0.45 0.40 0.41 0.45 0.47 0.43 0.46 0.39 0.43 0.31 0.41 0.49 0.48 0.38 0.43 0.39 0.43 0.41 0.43 0.44 0.42 0.43 0.42 0.42 0.40 0.37 0.32 0.28 0.25 0.24 0.23 0.22 0.24 0.26 0.28 0.25 0.24 0.24 0.23 0.22 0.21 0.21 0.22 0.23 0.24 0.24 0.25 0.27 0.28
0.39 0.29 0.33 0.60 0.64 0.76 0.89 0.81 0.64 0.55 0.52 0.54 0.53 0.49 0.49 0.46 0.51 0.55 0.57 0.56 0.49 0.51 0.42 0.39 0.39 0.33 0.34 0.36 0.36 0.36 0.32 0.34 0.34 0.34 0.38 0.39 0.39 0.31 0.40 0.39 0.40 0.39 0.45 0.44 0.43 0.43 0.37 0.37 0.32 0.38 0.39 0.38 0.39 0.47 0.47 0.47 0.46 0.44 0.44 0.41 0.41 0.39 0.36 0.31 0.29 0.35 0.31 0.27 0.24 0.23 0.22 0.25 0.27 0.29 0.27 0.25 0.24 0.23 0.23 0.23 0.22 0.23 0.24 0.25 0.26 0.27 0.28 0.28
0.27 0.20 0.31 0.61 0.68 0.77 0.74 0.56 0.57 0.62 0.56 0.51 0.49 0.52 0.47 0.54 0.50 0.51 0.52 0.56 0.52 0.44 0.49 0.45 0.43 0.38 0.37 0.33 0.32 0.34 0.31 0.30 0.32 0.33 0.36 0.34 0.38 0.37 0.39 0.45 0.42 0.45 0.41 0.37 0.38 0.43 0.41 0.41 0.37 0.33 0.36 0.38 0.44 0.49 0.53 0.52 0.50 0.48 0.46 0.43 0.45 0.42 0.40 0.35 0.28 0.30 0.31 0.29 0.29 0.27 0.23 0.24 0.28 0.29 0.27 0.26 0.25 0.25 0.24 0.23 0.22 0.23 0.24 0.25 0.27 0.29 0.30 0.31
0.22 0.24 0.51 0.60 0.71 0.71 0.65 0.52 0.57 0.55 0.53 0.58 0.57 0.53 0.52 0.50 0.48 0.48 0.47 0.50 0.46 0.47 0.45 0.43 0.42 0.40 0.41 0.37 0.37 0.34 0.33 0.28 0.30 0.28 0.31 0.36 0.39 0.40 0.43 0.44 0.45 0.44 0.44 0.41 0.44 0.45 0.44 0.36 0.33 0.36 0.41 0.45 0.48 0.51 0.52 0.52 0.49 0.45 0.46 0.47 0.44 0.40 0.40 0.36 0.34 0.34 0.30 0.29 0.27 0.26 0.24 0.25 0.28 0.29 0.28 0.27 0.26 0.26 0.26 0.25 0.23 0.23 0.24 0.25 0.27 0.29 0.29 0.30
0.29 0.32 0.41 0.62 0.71 0.70 0.56 0.41 0.43 0.49 0.53 0.57 0.52 0.47 0.51 0.46 0.46 0.46 0.46 0.46 0.42 0.41 0.39 0.39 0.42 0.42 0.35 0.40 0.35 0.31 0.33 0.26 0.34 0.34 0.34 0.40 0.37 0.45 0.43 0.42 0.42 0.39 0.38 0.37 0.35 0.44 0.35 0.37 0.34 0.31 0.32 0.35 0.38 0.43 0.43 0.47 0.46 0.41 0.40 0.43 0.44 0.43 0.42 0.41 0.39 0.38 0.30 0.29 0.28 0.25 0.22 0.24 0.28 0.30 0.29 0.27 0.26 0.24 0.23 0.24 0.24 0.22 0.23 0.25 0.26 0.29 0.31 0.32
0.37 0.42 0.41 0.56 0.73 0.66 0.47 0.50 0.44 0.47 0.49 0.49 0.49 0.42 0.42 0.43 0.48 0.46 0.43 0.42 0.44 0.41 0.40 0.37 0.37 0.38 0.38 0.40 0.35 0.32 0.33 0.27 0.26 0.35 0.35 0.38 0.38 0.45 0.43 0.41 0.41 0.37 0.39 0.41 0.41 0.46 0.36 0.35 0.33 0.27 0.24 0.23 0.23 0.23 0.25 0.30 0.35 0.40 0.42 0.42 0.43 0.41 0.39 0.37 0.33 0.33 0.29 0.30 0.29 0.26 0.24 0.27 0.29 0.29 0.27 0.27 0.26 0.24 0.24 0.24 0.25 0.24 0.23 0.24 0.25 0.27 0.30 0.31
0.32 0.24 0.40 0.49 0.63 0.63 0.59 0.63 0.52 0.46 0.45 0.44 0.43 0.43 0.40 0.37 0.43 0.50 0.51 0.47 0.47 0.44 0.42 0.39 0.42 0.42 0.38 0.37 0.34 0.32 0.30 0.32 0.26 0.25 0.29 0.32 0.37 0.40 0.42 0.41 0.40 0.38 0.39 0.41 0.43 0.42 0.35 0.37 0.34 0.31 0.28 0.26 0.28 0.33 0.41 0.42 0.41 0.36 0.38 0.40 0.40 0.41 0.41 0.38 0.36 0.32 0.29 0.29 0.28 0.27 0.27 0.26 0.26 0.26 0.25 0.25 0.25 0.23 0.23 0.23 0.23 0.23 0.24 0.26 0.27 0.28 0.29 0.31
0.37 0.26 0.37 0.38 0.53 0.57 0.55 0.59 0.53 0.54 0.43 0.42 0.36 0.42 0.39 0.40 0.41 0.45 0.52 0.43 0.47 0.44 0.41 0.40 0.38 0.35 0.35 0.34 0.31 0.29 0.29 0.27 0.29 0.26 0.25 0.26 0.32 0.36 0.41 0.40 0.40 0.41 0.40 0.40 0.42 0.40 0.34 0.30 0.31 0.32 0.32 0.33 0.35 0.36 0.40 0.41 0.37 0.38 0.38 0.38 0.40 0.39 0.39 0.36 0.33 0.30 0.33 0.29 0.25 0.28 0.29 0.26 0.25 0.26 0.25 0.25 0.25 0.24 0.23 0.23 0.24 0.24 0.25 0.25 0.27 0.29 0.30 0.31
0.25 0.34 0.42 0.52 0.43 0.41 0.46 0.50 0.58 0.50 0.52 0.48 0.40 0.44 0.40 0.41 0.42 0.40 0.46 0.47 0.46 0.45 0.37 0.39 0.37 0.35 0.33 0.29 0.27 0.25 0.27 0.26 0.25 0.23 0.27 0.29 0.30 0.33 0.34 0.39 0.38 0.39 0.39 0.38 0.41 0.35 0.31 0.27 0.31 0.33 0.32 0.35 0.36 0.36 0.38 0.38 0.38 0.38 0.39 0.39 0.37 0.38 0.38 0.34 0.33 0.33 0.33 0.29 0.26 0.29 0.30 0.27 0.27 0.27 0.26 0.25 0.24 0.24 0.24 0.25 0.25 0.26 0.27 0.28 0.28 0.28 0.28 0.29
0.39 0.40 0.49 0.60 0.45 0.49 0.51 0.53 0.58 0.52 0.50 0.49 0.45 0.45 0.42 0.42 0.39 0.41 0.38 0.39 0.40 0.39 0.38 0.30 0.31 0.31 0.31 0.31 0.28 0.24 0.26 0.22 0.22 0.26 0.24 0.25 0.27 0.28 0.29 0.34 0.38 0.40 0.37 0.36 0.37 0.38 0.32 0.29 0.32 0.33 0.32 0.33 0.35 0.36 0.37 0.35 0.35 0.36 0.37 0.38 0.39 0.38 0.36 0.35 0.33 0.34 0.33 0.30 0.30 0.31 0.31 0.28 0.29 0.29 0.27 0.26 0.26 0.26 0.25 0.26 0.26 0.26 0.26 0.27 0.28 0.28 0.28 0.29
0.36 0.33 0.44 0.55 0.53 0.50 0.51 0.53 0.53 0.52 0.47 0.50 0.43 0.44 0.42 0.40 0.38 0.40 0.42 0.38 0.32 0.33 0.36 0.29 0.29 0.30 0.30 0.29 0.27 0.22 0.23 0.21 0.20 0.20 0.25 0.23 0.25 0.27 0.26 0.28 0.28 0.35 0.36 0.33 0.34 0.37 0.32 0.28 0.33 0.33 0.31 0.31 0.33 0.36 0.36 0.35 0.34 0.32 0.34 0.35 0.36 0.38 0.37 0.36 0.35 0.34 0.35 0.33 0.32 0.31 0.29 0.28 0.31 0.32 0.30 0.30 0.30 0.30 0.28 0.26 0.25 0.26 0.27 0.28 0.28 0.28 0.29 0.29
0.46 0.47 0.50 0.47 0.45 0.48 0.51 0.52 0.50 0.48 0.46 0.49 0.44 0.44 0.42 0.40 0.36 0.38 0.37 0.41 0.33 0.29 0.31 0.28 0.28 0.30 0.32 0.29 0.27 0.24 0.24 0.23 0.23 0.22 0.24 0.25 0.21 0.25 0.24 0.28 0.31 0.29 0.33 0.33 0.34 0.35 0.34 0.31 0.35 0.33 0.28 0.28 0.33 0.33 0.34 0.35 0.35 0.33 0.32 0.32 0.32 0.32 0.33 0.36 0.35 0.36 0.34 0.30 0.32 0.32 0.29 0.28 0.31 0.34 0.33 0.32 0.31 0.29 0.28 0.27 0.27 0.27 0.29 0.30 0.29 0.29 0.29 0.29
0.56 0.65 0.63 0.54 0.42 0.51 0.47 0.52 0.51 0.49 0.44 0.47 0.44 0.43 0.40 0.37 0.38 0.39 0.35 0.41 0.40 0.38 0.36 0.34 0.33 0.30 0.30 0.29 0.26 0.25 0.27 0.28 0.28 0.28 0.28 0.28 0.28 0.28 0.29 0.30 0.30 0.29 0.31 0.32 0.36 0.33 0.34 0.32 0.31 0.31 0.27 0.27 0.32 0.34 0.33 0.33 0.32 0.29 0.26 0.28 0.32 0.33 0.33 0.35 0.38 0.40 0.38 0.36 0.32 0.29 0.27 0.32 0.35 0.35 0.32 0.32 0.32 0.31 0.30 0.29 0.29 0.29 0.31 0.31 0.30 0.30 0.30 0.30
Wind_Speed
55 54 55 54 52 53 54 56 58 58 56 55 56 56 54 54 53 52 52 50 49 48 47 46 45 43 41 39 38 36 36 35 35 35 35 34 33 33 33 33 31 28 26 25 23 23 21 20 22 24 25 24 25 26 25 23 20 19 19 18 18 18 18 17 17 17 14 13 14 14 15 15 13 13 13 10 10 10 11 10 9 10 9 9 9 10 16 16
53 53 55 55 54 54 54 55 57 58 57 55 55 56 54 54 53 52 52 51 50 49 48 47 46 44 42 40 38 37 35 34 35 35 35 33 33 34 33 33 33 30 28 25 24 23 22 22 23 24 24 23 24 25 26 25 22 21 20 19 19 18 18 18 18 17 15 14 15 15 15 16 15 15 14 12 11 11 11 10 10 10 10 10 10 13 17 17
51 52 53 54 54 55 55 54 56 57 57 56 54 55 54 54 53 53 53 52 50 50 49 48 46 45 43 41 39 37 35 34 35 35 35 33 33 33 33 33 33 32 29 27 25 24 23 24 24 24 24 24 24 25 26 25 24 23 22 20 19 19 19 19 18 18 17 15 15 17 16 16 16 16 14 13 13 12 12 12 11 12 12 12 12 15 17 17
50 51 51 52 53 54 55 54 54 55 57 57 55 56 55 54 54 53 53 52 51 50 50 49 47 45 44 42 40 38 35 33 35 35 34 34 33 33 33 32 32 32 30 28 26 24 23 23 24 25 25 24 25 25 26 26 26 25 23 21 19 19 19 20 20 18 17 17 17 17 15 16 16 16 15 14 13 13 14 14 14 14 14 14 14 16 18 18
50 51 51 50 51 53 54 54 54 53 56 57 54 56 56 54 54 53 53 52 51 51 50 50 48 46 45 43 41 39 35 33 34 35 35 35 34 33 34 33 32 32 31 28 26 24 22 22 23 25 25 25 25 25 26 27 26 26 25 22 21 20 20 20 20 18 17 17 17 17 16 17 16 16 17 17 15 14 15 16 16 15 16 16 16 17 18 18
50 51 51 50 50 51 52 53 54 52 54 56 53 54 57 55 54 53 52 52 51 51 51 50 49 47 45 43 41 40 38 34 31 34 36 35 34 34 34 34 33 32 31 29 27 25 22 21 23 25 25 24 25 26 26 26 26 27 25 23 23 22 22 21 19 19 18 18 19 19 18 18 17 16 17 19 18 15 14 16 16 16 17 17 17 18 19 19
51 50 51 51 50 51 50 51 54 52 52 55 53 53 56 55 55 53 52 52 51 51 51 51 49 48 46 43 41 40 40 35 30 33 36 35 34 34 34 34 34 33 32 30 28 26 24 23 23 25 25 25 25 26 26 26 27 27 26 24 24 24 23 22 21 20 20 19 21 20 18 19 19 17 17 20 20 16 14 16 17 16 17 17 17 18 19 20
51 50 50 51 51 51 50 50 53 52 51 54 53 53 55 55 54 54 53 52 52 51 52 51 50 49 47 44 42 40 40 38 32 32 35 35 34 33 33 33 33 34 33 32 29 27 26 24 24 25 25 25 25 26 25 25 27 27 26 25 24 24 24 23 22 21 21 21 21 20 19 20 20 17 17 20 20 17 15 16 17 17 17 18 18 19 19 20
51 50 49 50 50 51 51 51 51 51 51 53 53 53 55 55 54 54 53 52 52 52 51 51 50 49 47 44 42 40 40 39 34 32 33 34 33 33 33 33 33 34 33 33 31 29 28 26 26 26 25 25 24 24 25 26 27 27 26 26 25 25 24 23 23 22 22 22 21 21 20 20 19 17 18 20 21 18 16 17 17 18 18 19 19 19 20 20
51 50 49 49 50 50 51 51 51 51 52 53 52 52 54 55 55 53 53 52 51 52 52 51 50 49 47 45 42 40 39 39 36 34 32 33 33 33 33 33 33 34 33 33 32 31 30 28 27 26 25 25 25 24 25 27 28 27 27 27 26 26 26 24 23 22 22 22 23 22 20 20 19 18 18 20 20 19 18 18 18 19 19 20 20 20 20 21
51 50 49 49 49 51 51 51 52 52 52 53 52 53 53 54 56 54 52 52 51 52 52 52 51 49 47 45 43 40 38 39 38 36 33 33 33 34 34 34 33 34 34 33 33 32 31 30 29 27 26 26 25 24 26 27 27 27 27 27 26 26 26 26 24 23 22 22 23 22 20 20 19 19 20 20 20 20 20 19 20 20 20 20 21 20 21 21
52 50 49 49 48 50 52 51 52 51 53 53 51 55 56 53 56 55 52 52 52 52 51 51 51 49 46 44 43 40 38 39 39 37 35 33 33 33 34 34 34 34 34 33 32 32 31 31 30 27 27 27 25 24 26 27 27 27 27 27 26 26 26 28 26 24 23 22 23 22 21 22 21 21 21 20 21 20 20 21 21 21 21 21 21 21 21 22
52 50 49 49 47 49 52 51 52 50 52 53 48 54 59 54 55 55 53 52 52 52 51 51 50 48 46 43 42 40 38 39 39 38 36 34 33 33 33 33 33 33 34 34 32 32 31 31 30 29 28 27 26 25 25 26 28 28 28 27 27 26 27 28 26 25 24 23 24 23 23 24 23 23 22 21 22 21 21 22 22 22 22 21 22 22 22 22
52 51 49 49 47 49 51 51 52 48 50 51 45 50 58 56 56 54 53 52 52 52 52 50 48 47 45 41 41 40 38 38 39 38 37 34 33 33 33 32 32 32 32 32 31 32 33 31 31 29 29 28 27 25 23 25 27 28 29 28 28 28 28 27 26 26 25 24 24 24 24 23 22 24 24 22 22 22 22 22 22 23 23 22 22 23 23 23
52 51 49 49 48 48 51 52 53 49 49 50 43 46 53 54 56 55 53 52 52 52 51 50 48 46 43 40 41 40 39 39 38 38 37 35 34 33 33 32 31 31 30 30 30 32 33 31 30 29 29 29 27 25 24 24 27 28 29 29 28 29 28 27 27 27 25 24 24 24 24 23 22 24 24 23 23 23 23 23 23 24 24 24 23 23 23 23
52 52 50 49 48 48 51 52 53 50 49 49 44 44 49 51 53 54 53 52 51 52 50 49 48 46 42 40 41 41 40 39 38 38 37 36 35 33 32 31 31 30 30 29 29 30 32 31 30 29 29 29 27 26 25 25 27 29 30 30 29 29 28 27 27 27 26 24 25 25 24 23 23 22 23 24 24 24 24 24 24 24 24 24 24 24 24 23
52 53 50 50 49 48 50 53 53 52 50 48 44 43 45 49 50 51 53 52 50 50 48 46 48 44 39 39 41 42 41 39 39 38 37 36 35 34 33 31 30 30 29 29 28 28 29 30 30 29 29 29 28 26 26 28 31 32 32 31 30 29 29 28 27 27 26 24 26 27 25 25 24 22 21 24 25 25 24 24 24 25 24 25 24 24 24 24
52 53 51 50 50 49 50 53 53 53 52 48 43 42 44 46 48 48 50 51 48 47 45 43 45 42 39 42 43 42 41 40 39 38 37 37 36 35 33 31 31 31 29 28 28 28 27 28 29 29 29 30 29 29 30 30 32 34 33 32 31 29 29 29 28 27 26 25 26 27 27 27 26 23 22 24 25 25 25 25 24 25 25 25 25 24 24 24
52 54 53 51 51 50 50 52 53 55 54 49 43 42 43 44 45 44 47 52 50 46 43 45 47 41 38 43 42 40 41 40 39 38 38 37 37 35 32 32 32 31 31 29 28 28 28 27 28 30 32 33 32 33 31 27 28 32 32 31 31 30 29 29 29 28 27 26 28 28 28 28 28 26 23 23 24 25 25 24 24 25 25 24 24 25 25 24
52 54 54 53 52 52 52 52 54 56 54 50 46 42 42 42 41 41 44 49 50 46 44 46 47 40 37 40 40 40 40 40 39 39 39 38 37 35 33 32 31 30 31 31 30 29 29 29 31 33 34 33 32 31 29 26 26 29 30 30 30 30 29 29 29 28 26 27 29 29 28 28 28 27 24 23 24 24 25 25 25 25 24 25 25 25 25 25
52 54 55 54 52 53 54 53 54 55 53 51 48 44 45 45 42 41 42 43 42 43 44 44 42 39 39 41 40 41 40 38 38 39 39 39 37 35 33 33 32 31 31 30 29 29 29 32 34 34 32 31 30 28 28 28 27 27 29 30 30 30 30 28 29 28 27 27 28 29 29 30 29 27 25 24 24 25 27 27 26 26 25 25 26 26 26 25
52 55 56 54 53 55 55 54 54 54 51 50 49 47 47 48 44 43 42 39 37 39 42 43 39 38 40 40 41 41 39 37 38 39 40 40 38 36 34 34 32 32 31 29 29 29 31 34 33 31 31 31 30 29 29 29 28 26 28 30 30 29 29 28 28 27 27 28 28 28 30 31 30 28 26 26 26 26 27 27 27 27 26 26 27 27 26 26
53 55 57 55 54 56 56 56 54 52 51 49 49 49 48 47 45 44 41 37 36 38 41 42 40 39 40 40 41 41 39 37 39 41 41 40 38 36 35 33 32 32 33 33 32 32 32 33 31 31 32 32 32 31 31 30 29 28 28 30 31 29 28 29 28 28 27 28 27 27 29 30 30 29 28 29 29 27 27 27 27 27 27 27 27 26 27 27
54 56 58 56 55 55 56 56 54 53 52 51 50 49 48 47 47 46 41 36 35 37 39 40 40 40 40 39 40 40 38 37 38 41 42 40 37 35 34 32 32 32 33 34 33 32 31 31 30 30 32 33 33 32 32 31 30 31 30 31 31 31 30 30 28 28 27 28 28 27 27 30 31 30 30 29 29 28 28 28 28 28 28 27 26 26 27 27
55 57 59 59 56 55 55 55 55 55 54 52 51 49 47 47 48 47 41 35 34 35 37 39 39 39 39 38 38 38 35 35 37 40 41 40 37 34 32 31 31 32 32 32 32 32 32 31 30 30 31 33 33 33 33 31 30 31 32 32 32 32 31 30 29 28 28 30 30 28 27 29 30 31 31 29 28 29 28 28 29 29 29 28 28 28 28 27
57 59 61 61 59 56 54 54 56 56 55 52 52 51 48 48 48 46 40 35 35 37 38 39 38 38 39 37 37 36 34 33 35 38 39 38 37 34 31 30 29 30 31 30 30 30 31 32 31 31 32 33 34 34 34 31 29 30 31 31 31 32 31 30 30 30 29 31 30 29 29 28 28 31 32 30 30 30 29 28 30 30 29 29 29 29 28 28
60 61 63 63 61 58 56 56 56 56 55 52 51 52 50 48 47 44 38 34 35 39 39 38 37 38 39 37 37 37 35 35 35 37 39 37 36 33 31 31 29 28 29 28 29 30 30 31 32 32 32 33 35 35 34 32 30 29 28 27 29 31 31 31 30 31 31 29 29 30 30 29 30 32 30 29 30 31 31 29 29 30 31 30 30 30 29 29
62 63 64 64 63 61 59 57 55 56 55 52 51 51 49 49 47 42 36 32 34 39 40 38 37 37 38 36 35 35 35 37 36 37 38 36 34 32 30 30 28 28 28 28 29 29 29 31 32 32 32 34 35 34 33 33 31 28 26 26 28 28 30 30 30 31 30 29 30 31 30 29 31 32 29 28 30 31 32 31 30 31 32 32 31 31 30 30
64 65 66 65 63 63 62 58 55 56 54 50 51 52 49 48 46 40 34 30 33 39 40 40 38 37 38 36 33 33 34 35 35 36 37 36 34 31 30 30 28 27 28 27 28 28 28 31 31 31 32 33 33 32 33 34 33 28 25 25 25 24 25 27 29 30 29 30 34 34 32 30 30 32 31 29 30 31 31 30 30 31 32 32 32 32 31 31
67 67 67 67 65 64 63 60 57 55 52 49 50 53 48 46 45 38 33 31 34 38 39 41 40 39 40 37 32 33 34 33 34 36 35 34 33 31 29 29 27 26 27 26 27 27 27 28 30 30 31 31 31 31 32 34 31 27 24 24 23 23 24 25 27 29 29 32 36 35 34 32 29 31 33 32 31 31 30 29 29 30 31 32 32 32 32 32
69 69 69 69 67 65 63 62 60 54 51 49 50 52 47 42 42 37 32 33 34 37 39 40 41 41 41 39 35 34 33 31 34 37 36 34 33 32 30 30 28 27 27 27 27 27 26 27 29 29 30 30 30 31 32 32 31 27 25 24 22 23 24 25 26 28 30 32 34 34 33 33 32 31 31 32 31 30 30 30 29 29 30 30 31 31 32 32
71 71 71 71 69 68 65 64 63 55 51 52 52 51 44 39 38 35 32 34 35 38 41 42 42 42 41 39 37 36 34 32 35 37 37 35 34 34 32 31 30 28 28 29 27 26 26 27 27 27 29 30 31 31 31 32 32 29 27 26 24 23 23 25 27 28 31 31 30 31 32 33 35 34 31 31 31 31 31 31 30 29 29 29 29 29 31 32
73 72 73 73 71 70 68 64 62 57 54 54 52 48 43 37 35 34 35 35 34 38 41 42 42 42 41 39 38 37 34 33 36 36 36 35 34 33 31 30 31 28 26 27 26 25 25 26 27 27 28 30 32 32 33 34 34 33 30 29 27 24 24 27 28 27 30 30 29 30 31 32 34 34 34 34 33 31 31 31 31 30 30 29 28 28 29 30
74 73 74 74 72 71 68 64 61 59 57 54 50 47 43 37 34 36 38 35 34 37 39 41 42 41 39 38 39 39 35 33 36 36 35 35 34 34 33 32 32 28 25 26 26 26 25 24 27 28 27 29 32 32 32 32 33 34 32 29 28 26 24 26 27 28 29 28 29 29 30 31 31 31 33 34 33 31 30 31 31 30 31 30 29 28 28 29
75 74 74 73 73 72 69 65 63 62 59 54 49 47 44 37 34 38 40 37 35 36 37 39 42 40 37 36 38 39 35 34 36 36 35 36 36 35 34 33 33 30 27 27 26 27 26 24 23 24 25 27 29 29 29 30 31 32 31 29 30 28 25 23 25 28 27 26 28 30 32 31 30 29 30 30 31 31 31 31 30 30 30 29 29 29 29 29
75 74 73 72 73 73 71 68 65 63 59 53 48 46 44 39 37 39 39 38 39 39 39 39 39 38 36 36 38 38 35 35 36 35 35 35 34 35 33 32 32 31 29 28 26 26 26 23 22 22 23 25 27 27 29 30 30 30 31 32 31 27 24 23 24 25 26 27 29 30 33 33 30 29 28 27 28 29 30 30 30 31 30 29 29 29 29 30
74 73 72 72 74 74 73 70 66 62 58 53 49 46 44 40 39 39 39 39 39 41 41 39 39 40 38 37 38 39 37 36 36 35 35 34 33 35 35 32 32 32 29 27 25 26 25 22 22 23 24 24 25 25 27 30 29 29 32 32 28 25 26 25 24 24 25 28 29 29 32 33 32 31 29 27 28 29 29 29 29 30 30 30 30 29 29 29
73 72 69 72 74 74 74 71 66 60 54 52 51 46 43 40 39 40 40 39 39 40 39 37 37 40 42 41 40 41 41 39 38 35 34 34 32 34 36 33 32 33 30 27 25 25 24 21 21 23 24 23 23 24 26 29 30 29 31 30 27 26 27 27 26 25 26 28 28 28 31 33 33 33 29 29 30 30 29 28 28 29 30 30 30 30 30 30
72 68 65 70 74 73 73 70 64 57 51 51 51 46 42 39 38 40 42 41 40 39 38 37 36 37 40 42 42 43 42 41 42 37 34 35 32 33 36 33 31 33 32 28 25 25 24 22 20 22 24 23 23 25 27 29 30 30 29 30 29 28 27 28 28 27 26 27 27 27 29 31 34 34 31 30 31 30 29 28 28 29 30 30 31 31 32 32
69 64 61 69 74 72 71 67 61 55 51 51 50 44 42 39 38 42 45 43 39 36 36 38 38 38 39 39 40 42 40 40 42 39 34 34 32 31 35 33 31 32 32 29 26 24 23 22 20 21 23 24 24 26 28 28 30 31 31 31 31 30 27 26 28 29 27 27 27 27 28 30 32 32 32 32 30 29 29 29 29 30 31 32 31 31 32 32
67 60 59 69 74 71 69 62 56 53 50 50 47 43 42 40 39 42 44 42 37 32 33 36 38 39 39 39 40 41 39 38 40 38 33 33 32 31 33 34 32 30 31 30 29 26 23 22 21 21 23 25 25 25 26 27 29 31 32 31 31 31 29 26 27 29 29 28 27 27 27 30 30 30 31 31 28 27 28 29 29 30 32 33 32 32 32 32
64 57 59 70 74 71 66 56 52 51 50 49 46 43 42 40 40 41 41 40 36 32 31 33 36 36 37 39 39 40 39 39 40 39 33 33 33 30 31 33 33 31 30 30 29 26 23 21 21 21 24 25 25 24 25 26 27 28 30 31 29 30 30 29 28 27 28 29 28 27 27 29 28 27 28 28 26 27 28 28 29 30 31 32 32 32 32 32
60 56 59 68 73 71 63 54 51 51 49 47 45 42 42 41 41 40 40 39 36 34 33 33 35 36 36 36 37 38 39 37 39 40 34 31 31 29 30 32 33 32 30 28 28 26 23 22 21 20 22 23 24 24 24 25 26 28 29 30 30 30 30 30 29 27 28 29 28 28 29 30 29 26 26 26 25 26 27 28 29 30 30 31 32 32 32 31
56 55 58 65 70 69 60 53 53 51 47 45 43 42 40 39 41 41 40 40 37 35 35 34 36 37 36 36 37 39 39 36 38 39 34 31 31 30 31 32 32 32 30 28 28 26 24 23 23 20 19 21 23 24 26 27 28 29 29 29 30 29 28 28 29 28 29 30 30 30 31 32 31 28 27 26 25 26 27 28 29 30 30 30 31 31 31 31
54 53 55 61 66 65 57 52 53 51 49 47 44 43 41 39 41 42 41 38 35 34 35 34 35 35 36 37 36 38 39 36 37 39 36 33 31 29 31 33 32 31 29 28 27 27 24 23 24 23 22 24 25 25 26 28 28 29 29 28 29 29 29 29 28 28 30 31 31 31 31 31 31 30 29 28 26 27 27 26 27 27 27 27 28 29 31 31
53 51 53 57 60 60 54 51 52 52 51 49 44 43 42 40 39 40 40 37 34 34 33 32 33 33 34 37 36 37 38 35 34 37 37 36 34 31 32 34 32 30 28 28 28 26 24 24 26 27 27 26 25 23 23 23 26 29 29 28 28 29 29 28 28 29 30 29 31 33 32 31 31 30 29 28 27 27 27 26 25 25 25 26 27 28 29 30
52 52 54 55 55 55 53 51 51 50 51 50 45 43 44 42 40 39 39 38 35 35 33 31 33 35 36 39 38 37 38 33 32 36 38 36 33 30 30 31 30 29 28 29 29 26 25 26 27 27 27 26 23 23 22 22 26 29 29 29 29 28 29 30 31 32 29 28 32 34 31 31 32 31 30 29 27 26 26 26 26 25 25 25 26 27 28 29
49 51 55 55 52 52 53 52 51 49 50 48 43 42 43 43 42 41 39 37 36 36 34 33 36 38 39 41 39 38 38 34 33 36 37 36 34 31 30 30 29 29 28 29 30 28 27 28 28 26 27 26 24 23 24 23 25 27 29 31 31 30 30 32 34 34 31 32 35 34 32 34 34 32 31 29 27 26 26 27 27 26 26 26 26 27 29 29
48 49 52 53 49 50 53 52 50 49 49 46 42 41 43 44 44 41 37 36 38 38 37 38 39 40 40 41 39 38 40 38 36 37 38 37 37 35 33 32 31 29 29 29 30 28 27 28 27 26 26 26 25 24 24 24 24 25 28 31 32 33 34 35 35 34 33 36 36 33 34 37 34 33 32 29 27 27 28 28 28 28 28 28 28 29 30 30
49 50 52 51 47 48 51 51 51 50 47 45 43 42 43 44 44 40 35 38 40 39 40 42 42 41 41 42 40 40 42 42 40 40 39 38 39 38 37 35 33 31 30 30 30 29 28 27 26 25 25 25 25 24 24 25 24 25 27 29 31 34 36 37 36 33 33 36 35 33 36 38 34 32 32 31 30 29 29 29 29 29 29 30 30 30 31 30
48 50 53 52 47 47 49 49 50 49 47 46 44 42 43 44 44 40 35 36 38 39 40 42 41 39 39 41 41 41 41 40 38 38 39 38 38 38 37 35 34 33 31 30 30 29 28 26 24 23 25 26 25 24 24 24 23 26 30 31 31 32 33 34 34 33 34 34 33 34 37 37 33 31 32 33 33 32 31 30 29 29 30 31 31 32 32 31
48 49 51 50 46 46 48 47 48 48 47 46 43 41 42 43 42 41 37 34 35 37 37 38 38 37 38 41 41 39 36 34 32 33 34 34 32 31 31 32 32 32 31 30 29 28 28 26 24 24 25 25 23 23 23 21 21 27 31 30 30 30 29 30 31 33 34 33 33 35 36 33 31 31 32 33 33 32 33 32 31 31 32 32 33 33 33 33
Wind_Direction
213 213 212 213 213 213 212 212 211 211 212 212 211 211 211 210 210 210 210 210 209 208 208 208 208 208 208 208 208 209 210 213 215 216 219 220 219 218 218 218 220 221 220 220 220 220 222 220 217 215 215 218 218 218 221 223 222 222 222 221 222 220 218 214 211 215 216 217 216 213 207 204 209 208 206 204 198 194 192 202 203 199 200 194 188 174 166 165
212 213 212 213 214 212 211 212 211 211 211 211 211 210 210 210 209 209 209 209 209 208 208 207 208 208 208 208 208 209 211 214 215 218 219 218 218 217 217 217 217 220 220 220 221 221 222 221 218 215 216 218 217 218 219 222 222 221 221 222 222 219 219 214 210 214 217 216 215 215 211 208 209 204 204 205 203 200 197 204 204 202 201 193 183 171 168 168
211 211 211 211 212 211 210 211 211 211 211 210 210 209 209 209 209 208 208 209 208 208 208 207 207 207 208 208 208 209 212 215 218 220 219 217 216 215 215 215 216 219 219 220 220 221 222 221 219 217 219 221 220 219 218 221 224 222 220 222 223 220 221 219 215 217 220 217 214 216 214 212 210 203 204 206 204 206 205 202 199 202 200 190 181 173 172 173
211 210 209 210 211 210 210 211 211 211 210 210 210 208 208 208 208 208 208 208 208 207 207 207 207 207 207 207 208 209 212 218 221 220 218 216 216 215 215 215 215 217 218 219 219 219 222 221 220 219 220 223 223 221 220 221 223 223 219 220 222 219 222 222 219 221 222 218 215 215 212 212 211 205 205 201 201 213 213 205 201 199 195 189 184 178 177 177
212 210 209 208 208 208 209 210 210 210 209 208 209 208 207 207 207 208 207 207 207 206 206 206 207 207 207 207 208 209 212 219 222 219 217 216 215 216 215 215 214 214 216 218 218 218 221 221 219 220 221 223 224 221 221 222 222 224 222 221 221 218 222 225 220 221 221 217 214 212 211 211 209 208 206 199 201 212 211 207 205 200 193 190 187 182 181 182
212 211 209 208 207 207 207 208 209 209 208 207 207 206 206 206 206 206 207 206 206 206 206 206 206 206 206 207 208 210 212 219 221 218 216 215 215 216 216 215 214 214 216 218 218 218 221 222 219 218 219 222 223 220 222 224 223 223 223 223 224 221 223 225 222 223 221 213 211 212 214 209 206 213 210 204 206 212 212 208 205 202 197 193 188 185 185 186
211 211 210 209 209 208 206 206 207 208 207 205 206 205 204 205 206 206 206 206 205 205 205 205 206 206 205 206 209 212 215 219 221 216 214 214 215 215 215 216 215 215 217 218 218 219 221 223 220 217 218 221 222 221 223 225 223 221 221 225 228 224 224 227 226 226 221 216 214 212 213 208 207 214 212 210 211 213 217 209 202 202 199 195 192 190 190 190
210 210 210 209 209 208 206 205 205 206 206 205 205 205 203 204 205 206 206 205 205 204 204 205 205 205 205 207 209 213 216 218 219 215 212 213 214 214 214 216 217 217 218 218 218 219 221 222 220 218 219 222 222 220 223 224 221 219 221 226 228 225 225 228 228 227 222 219 216 211 213 212 212 215 213 214 215 215 216 207 201 202 200 199 197 196 195 193
210 210 210 209 207 207 206 205 204 205 205 204 204 203 203 203 203 204 205 204 204 204 204 204 205 204 206 208 210 214 217 217 217 214 212 213 213 213 214 216 217 217 218 219 218 218 222 222 221 221 220 221 223 222 222 222 221 221 223 228 229 228 228 228 227 225 222 219 214 212 215 216 216 218 219 217 214 214 213 207 204 203 202 202 202 201 199 198
209 209 209 209 207 207 206 204 204 204 204 204 203 202 202 202 202 202 203 203 203 203 203 204 204 204 206 208 211 215 216 215 215 214 213 213 213 213 215 216 217 216 217 219 218 218 222 222 221 221 219 220 222 223 223 223 223 225 228 230 230 229 228 225 224 223 221 219 215 213 216 218 218 218 221 219 213 211 210 209 207 205 205 205 205 206 204 203
209 209 208 208 208 207 206 205 204 203 204 205 205 203 201 201 202 202 202 202 202 202 203 204 204 205 207 209 212 215 215 214 214 213 213 213 212 213 214 215 217 216 216 219 219 219 221 219 218 221 222 221 222 223 225 226 228 229 230 231 230 228 227 224 223 221 219 219 216 212 215 219 219 218 220 217 213 212 210 209 209 208 209 208 208 209 208 208
209 209 209 208 208 207 206 206 204 204 204 205 207 206 202 200 201 201 201 201 201 201 202 203 204 206 207 210 213 215 214 213 213 213 213 213 213 213 214 215 216 217 216 217 219 219 218 217 217 221 223 221 221 224 226 228 230 229 227 228 228 228 227 223 221 220 218 219 216 212 217 222 219 219 220 217 213 212 211 210 210 210 211 211 211 211 212 212
209 209 209 208 208 206 205 205 203 203 203 203 207 206 202 201 200 200 201 201 201 200 202 202 204 206 207 211 214 214 213 212 211 212 213 213 213 213 214 215 215 216 216 216 218 217 216 217 217 219 222 221 221 224 226 228 230 227 224 223 225 228 227 222 219 219 218 219 217 214 219 223 220 221 220 217 214 211 211 212 212 212 213 213 213 214 214 214
209 209 209 209 208 206 205 203 202 202 200 201 205 202 200 201 201 200 200 200 200 200 201 201 203 206 208 212 214 213 212 210 209 211 212 212 211 212 213 214 214 215 215 215 216 216 216 218 217 218 223 223 222 224 228 229 226 225 225 223 222 224 226 223 219 218 217 220 219 217 222 224 221 223 221 216 215 212 212 214 214 214 215 215 215 216 216 215
210 209 209 208 208 206 204 202 200 200 198 198 200 198 198 200 200 200 200 199 199 199 200 201 203 205 208 213 213 211 210 208 209 209 211 211 209 210 212 212 213 213 213 214 217 217 216 217 217 219 223 225 224 225 229 229 224 222 224 224 223 222 224 225 220 217 218 221 220 218 223 224 223 224 221 217 216 215 214 215 215 216 216 217 217 217 218 218
210 209 208 207 206 206 204 202 199 198 197 197 198 198 197 197 197 198 199 198 198 198 199 201 204 204 208 212 211 208 208 208 208 208 209 210 208 208 208 208 210 211 212 214 216 216 216 217 218 220 222 223 224 226 229 230 225 221 221 223 224 223 223 224 222 219 220 221 222 222 223 223 223 225 222 217 216 216 216 217 216 216 217 218 219 219 219 220
210 209 208 207 206 205 204 202 199 197 196 197 199 199 197 194 193 195 197 197 197 198 199 201 202 203 208 211 209 208 208 208 207 206 208 209 208 206 205 207 208 209 210 212 214 215 216 217 218 221 223 223 223 223 226 226 223 220 219 221 223 223 222 222 222 221 221 221 223 224 224 223 224 226 223 218 216 216 217 218 218 217 218 218 219 220 220 220
210 209 208 207 206 205 203 201 199 197 195 196 199 198 195 193 192 194 195 195 195 196 199 201 199 201 210 210 208 207 207 206 205 205 206 207 207 206 206 208 207 207 208 212 215 215 216 218 219 221 223 223 220 219 222 223 220 217 218 219 222 224 223 222 222 220 219 222 223 222 224 226 227 228 225 221 218 217 219 219 219 219 219 219 220 220 220 221
210 209 209 207 205 204 202 201 199 197 196 196 196 195 193 191 192 196 196 195 195 197 200 200 199 204 210 208 207 206 205 204 203 205 206 206 206 207 207 206 205 207 209 214 217 215 216 218 219 220 221 220 219 219 221 223 218 215 217 219 222 225 225 222 223 222 219 221 224 222 223 225 227 227 225 222 220 220 222 222 221 221 221 221 221 221 221 221
210 209 209 207 205 203 202 201 199 197 197 198 196 195 193 190 191 195 196 195 197 201 201 198 201 206 205 202 203 202 201 202 203 205 205 205 205 204 206 206 206 210 212 215 217 217 217 218 220 220 220 219 219 219 220 224 223 219 219 222 224 225 226 224 224 225 221 222 226 224 223 225 226 226 224 221 221 223 225 224 223 223 222 222 222 222 222 222
210 209 209 207 205 203 202 201 199 197 198 199 198 198 195 192 191 192 191 191 196 200 199 197 201 205 202 199 199 198 199 203 204 204 203 203 203 203 207 207 208 213 215 214 216 219 219 222 224 222 220 219 218 218 218 223 226 224 221 223 225 224 225 226 224 225 223 224 228 225 224 227 227 226 224 220 220 223 224 223 223 223 223 223 223 223 223 224
210 209 209 207 205 204 202 200 199 197 197 199 199 198 196 194 192 190 188 187 191 195 196 197 200 201 200 199 198 196 198 203 204 204 204 203 204 206 209 210 211 214 214 212 215 218 221 225 225 221 219 218 219 219 218 222 225 225 222 222 225 222 223 227 225 225 224 225 229 227 225 227 228 227 224 221 222 224 224 223 224 224 223 224 223 224 224 225
210 209 208 207 204 203 202 200 199 197 197 199 198 197 196 194 192 189 187 187 191 194 196 199 199 197 198 200 201 198 199 203 204 204 205 204 207 208 209 211 212 213 214 215 216 217 221 226 223 219 218 217 219 220 219 222 225 224 223 223 224 221 220 224 226 225 223 225 228 226 226 228 228 228 226 224 225 226 226 225 227 226 224 225 225 225 225 225
211 209 207 206 203 203 201 200 199 198 198 199 198 196 195 194 191 187 188 190 193 196 198 199 198 196 198 200 202 201 202 205 205 204 205 205 208 209 210 212 213 214 217 217 218 218 222 226 222 219 219 217 218 219 219 222 225 225 225 224 224 222 221 223 226 226 224 226 226 225 230 231 227 228 228 226 225 227 227 226 227 228 226 227 228 228 227 226
211 209 207 205 203 202 200 200 200 197 198 199 198 196 195 194 190 187 189 193 194 196 198 198 198 198 199 199 201 202 202 205 206 204 204 205 207 208 211 213 215 217 218 217 218 221 223 224 220 218 220 218 218 220 219 221 223 226 226 224 223 223 223 223 226 225 223 226 226 224 229 232 228 228 228 226 225 227 227 226 228 229 228 228 229 229 228 228
211 209 206 204 203 201 200 200 199 196 196 199 199 197 195 192 190 189 192 196 197 197 197 197 199 200 199 201 201 199 200 206 206 203 203 206 207 208 211 214 217 218 217 217 220 222 223 223 220 218 219 218 219 221 220 219 222 226 225 222 222 223 224 223 224 224 223 225 227 224 227 232 232 229 228 227 227 228 227 227 229 230 230 229 229 229 229 230
210 208 205 204 202 200 199 198 196 195 196 198 197 194 193 191 189 190 192 197 201 199 196 197 199 198 199 201 200 200 203 204 202 202 204 205 206 208 211 214 216 217 217 217 221 223 221 220 221 220 218 219 220 221 220 218 220 225 224 220 222 224 224 224 223 226 227 227 228 226 226 231 233 230 229 228 228 230 230 230 231 231 231 230 230 230 230 231
209 207 205 203 201 200 198 196 194 195 196 196 194 191 190 188 188 191 194 199 200 198 197 198 197 196 196 197 198 202 204 200 199 203 204 204 206 208 211 214 213 212 214 215 219 222 220 219 221 221 220 222 222 221 219 218 222 228 226 222 225 226 226 225 225 227 228 227 228 227 224 229 232 231 231 229 227 229 231 231 231 231 231 231 231 231 231 231
208 206 204 201 201 199 198 196 195 194 193 193 192 189 187 186 187 192 198 201 198 196 198 197 196 195 192 193 197 201 200 201 204 203 201 204 207 209 211 212 210 210 215 219 221 223 223 222 220 220 223 224 223 222 220 220 225 229 227 224 227 228 227 226 226 227 226 226 227 225 223 227 233 232 230 229 228 229 230 231 231 232 232 232 232 232 232 231
206 204 202 199 199 198 196 196 195 192 191 192 189 186 185 186 188 193 199 199 194 194 196 196 196 195 191 192 198 199 198 203 204 199 201 206 206 208 210 208 209 213 219 224 225 224 225 223 220 222 225 224 222 223 222 223 225 226 224 223 226 229 227 228 228 226 224 227 228 225 223 226 232 232 229 229 229 227 228 232 233 233 233 233 233 234 233 232
204 203 200 198 198 196 194 194 194 192 191 190 186 183 184 188 192 196 199 195 191 192 194 194 195 194 193 194 197 198 199 202 201 198 201 205 205 207 208 209 212 215 219 223 225 224 223 222 222 224 224 221 222 223 223 224 224 222 221 220 224 227 226 228 228 224 224 228 229 227 224 225 230 231 229 231 232 229 228 230 232 233 234 235 234 234 234 233
203 201 198 197 197 195 194 193 192 191 190 187 184 183 186 190 195 198 194 191 192 194 194 193 193 194 194 195 197 198 198 201 201 200 202 204 206 208 210 212 213 213 218 220 221 221 221 224 225 225 223 220 220 222 222 222 220 219 219 217 220 222 222 224 224 223 226 229 229 226 224 227 230 231 230 232 233 231 229 229 231 233 235 236 236 235 235 233
200 198 197 196 196 195 194 191 190 190 187 185 185 187 190 194 198 196 190 190 193 194 194 194 194 194 194 196 198 198 199 201 201 201 203 204 206 210 213 214 212 214 218 215 216 219 221 226 226 224 226 222 219 220 220 220 218 218 219 217 218 219 219 222 224 226 229 230 229 226 224 230 234 233 231 231 232 233 232 232 233 235 236 238 238 236 235 233
197 195 195 195 195 194 193 190 190 189 185 186 189 191 194 197 198 194 191 192 191 190 193 194 191 192 195 198 199 199 199 201 201 200 203 204 206 209 213 213 212 216 217 213 216 218 218 226 225 223 225 222 221 223 221 219 218 220 220 219 222 222 221 224 225 227 228 229 229 225 224 228 230 233 233 231 234 235 234 235 236 236 237 238 239 237 234 233
193 193 193 193 193 193 191 189 189 187 185 188 192 194 196 197 196 193 192 191 189 187 189 191 190 191 195 199 200 201 202 201 200 200 203 205 208 210 212 213 212 215 217 215 218 219 219 227 228 225 224 220 221 223 220 218 219 221 219 220 226 225 223 227 228 227 227 228 229 226 226 229 230 235 236 233 236 237 236 237 237 237 238 237 238 237 234 233
190 190 191 192 192 191 190 188 188 187 188 190 193 197 198 197 195 192 190 189 189 186 184 186 190 191 194 197 198 202 205 202 199 201 204 207 210 210 211 214 213 214 217 217 219 219 221 229 231 226 225 223 220 219 218 218 219 219 218 222 226 224 223 229 231 229 227 229 231 228 230 234 235 237 238 234 236 237 237 238 237 236 237 236 236 236 234 233
187 187 189 190 190 189 188 187 187 189 191 193 195 197 197 197 195 192 190 189 188 186 184 186 192 193 193 195 198 200 201 199 199 203 205 207 211 211 211 214 213 214 217 217 220 221 220 228 232 225 223 226 221 216 218 221 219 218 220 222 224 223 225 229 231 231 229 230 234 230 230 233 232 235 238 235 235 237 237 237 237 237 236 235 235 235 234 234
183 184 187 189 188 188 188 187 188 191 193 194 196 196 195 197 197 195 193 189 187 188 188 190 194 196 195 195 198 199 198 198 200 202 205 208 214 213 210 213 214 213 215 216 220 223 220 224 232 227 221 223 221 218 220 222 221 220 222 221 220 223 227 227 228 230 230 232 236 234 233 232 229 231 235 234 232 235 235 234 236 237 235 234 235 234 234 234
180 182 186 187 186 187 187 187 189 192 194 194 195 196 197 197 197 195 191 189 190 192 193 193 195 197 198 197 197 198 199 200 199 201 205 209 214 214 209 212 214 211 213 214 218 222 219 220 228 227 221 219 221 221 221 221 221 221 223 222 222 224 227 228 228 230 230 232 235 236 235 234 232 231 232 233 234 234 234 233 234 236 235 234 233 233 234 234
179 182 186 185 185 186 186 186 190 194 195 195 195 197 197 196 195 193 190 190 193 196 197 196 195 196 198 198 197 198 200 201 200 202 207 208 211 214 210 210 212 211 210 213 216 219 219 220 223 224 222 220 222 223 221 219 219 220 221 222 222 224 228 231 232 230 230 231 233 234 236 237 235 232 232 235 236 234 233 233 234 235 235 235 234 233 234 234
179 183 185 183 184 184 184 187 193 194 194 194 196 198 196 195 193 191 190 192 196 200 201 198 198 197 197 197 198 200 200 200 200 202 206 207 208 212 210 208 209 208 208 212 216 219 220 220 219 219 220 221 225 226 222 221 220 220 222 223 223 224 226 232 234 231 231 232 231 232 237 239 237 233 233 236 236 235 234 234 235 236 236 235 235 235 235 236
179 183 183 182 183 183 184 189 193 192 193 195 196 197 194 193 192 191 192 194 198 202 201 199 199 198 198 198 198 199 200 200 201 202 205 207 206 208 207 203 203 205 207 212 216 218 219 219 219 221 221 222 226 226 223 223 222 222 225 225 224 225 226 229 233 232 232 234 233 233 236 239 238 234 234 237 238 238 237 236 236 237 236 236 236 236 236 238
180 182 180 181 183 183 185 190 191 191 193 194 195 196 195 195 194 193 194 196 199 201 199 200 200 198 200 200 198 199 200 201 202 203 204 204 205 206 203 198 199 203 208 212 214 216 219 219 219 222 225 226 228 228 225 224 223 225 228 226 225 227 228 229 232 233 233 233 232 235 238 238 237 235 233 236 239 241 241 239 238 238 238 237 237 237 237 238
179 179 179 181 183 185 188 191 190 190 192 192 193 195 197 198 196 194 195 197 200 201 199 200 201 200 202 201 200 200 201 202 204 204 204 204 205 206 201 198 199 204 210 214 213 214 218 220 218 218 224 226 228 230 228 226 225 227 228 227 226 227 228 231 233 235 236 235 231 233 237 237 238 239 239 239 241 242 242 241 239 239 238 237 237 237 237 238
177 178 179 182 184 187 192 194 191 190 190 189 192 194 195 197 198 196 195 197 201 202 201 201 200 200 200 200 201 203 203 205 206 206 207 208 209 210 206 202 204 209 213 213 210 212 218 221 219 217 220 222 223 227 228 226 226 228 228 228 227 226 226 230 233 234 236 236 233 233 236 239 240 242 241 241 241 241 243 242 240 238 237 237 237 237 237 238
178 179 180 182 186 190 194 195 193 192 190 189 191 194 194 195 197 197 196 198 202 201 201 202 198 197 198 198 199 202 204 208 210 208 209 210 212 216 212 208 209 212 212 209 208 213 221 224 223 221 223 224 225 230 229 223 224 228 228 228 228 227 227 229 233 234 234 235 236 235 235 238 240 239 238 239 239 239 240 240 238 237 238 238 238 238 239 239
181 182 181 181 184 189 192 192 193 193 192 190 192 195 194 193 194 195 197 201 202 200 201 203 199 198 199 197 199 202 203 207 210 209 209 211 213 216 214 213 213 212 211 210 211 216 223 226 225 225 227 228 227 230 228 224 225 228 227 228 228 228 227 229 233 234 231 234 238 236 233 235 238 237 236 236 236 236 238 239 239 240 240 239 239 238 239 240
182 183 183 183 185 188 189 190 191 192 192 192 194 195 193 192 194 196 199 202 202 200 201 203 202 202 201 199 201 202 202 205 208 208 208 210 212 213 213 215 217 214 212 214 217 220 224 227 227 225 229 231 230 229 227 226 229 229 228 229 229 228 228 230 233 233 231 234 238 236 233 235 237 237 236 236 235 237 240 243 243 242 241 240 240 240 240 241
183 182 183 185 187 188 187 187 189 190 191 193 195 195 193 193 194 197 200 200 200 202 203 202 204 204 202 202 203 204 203 205 207 208 209 209 209 210 210 214 218 217 215 216 220 224 226 228 228 225 228 232 232 232 231 230 231 231 230 230 229 229 229 231 234 234 233 237 239 238 238 238 237 237 238 239 241 241 242 243 243 242 242 242 242 242 242 243
184 183 183 183 186 188 187 188 189 189 192 194 195 195 195 194 195 198 201 201 201 203 204 203 204 205 203 203 205 207 208 208 209 209 209 208 209 210 211 214 216 216 216 217 220 223 225 227 228 224 227 233 233 233 234 234 235 235 234 233 231 230 231 233 234 234 236 239 240 240 242 241 238 238 239 240 242 243 244 244 243 243 244 243 243 243 244 246
184 185 184 183 184 186 187 189 190 191 193 195 196 196 196 197 198 199 203 206 205 205 205 204 203 204 204 205 208 211 212 212 212 211 210 211 213 214 216 217 215 213 215 217 219 221 222 225 228 224 225 232 233 231 233 235 239 241 239 235 232 232 233 234 235 234 235 238 239 241 242 240 237 238 239 239 240 242 244 245 244 244 244 243 243 244 246 247
183 184 185 185 186 187 188 189 191 193 195 195 196 197 198 199 200 199 202 206 207 206 205 202 201 203 204 207 211 212 212 212 213 213 214 215 216 217 217 216 212 211 214 216 219 221 221 223 227 225 226 232 233 230 231 233 240 243 240 234 233 235 236 237 238 236 236 237 238 240 241 240 238 237 238 239 239 240 243 245 245 246 245 243 245 246 248 249